QPF
0.00 0.00 0.00 0.00 0.01 0.01 0.00 0.00 0.00 0.00 0.00 0.00 0.00 0.00 0.00 0.00 0.00 0.00 0.00 0.00 0.00 0.00 0.00 0.00 0.00 0.00 0.00 0.00 0.00 0.00 0.00 0.00 0.00 0.00 0.00 0.00 0.00 0.00 0.00 0.00 0.00 0.00 0.00 0.00
0.00 0.00 0.00 0.00 0.01 0.00 0.00 0.00 0.00 0.00 0.00 0.00 0.00 0.00 0.00 0.00 0.00 0.00 0.00 0.00 0.00 0.00 0.00 0.00 0.00 0.00 0.00 0.00 0.00 0.00 0.00 0.00 0.00 0.00 0.00 0.00 0.00 0.00 0.00 0.00 0.01 0.01 0.00 0.00
0.00 0.00 0.00 0.01 0.01 0.01 0.00 0.00 0.00 0.00 0.00 0.00 0.00 0.00 0.00 0.00 0.00 0.00 0.00 0.00 0.00 0.00 0.00 0.00 0.00 0.00 0.00 0.00 0.00 0.00 0.00 0.00 0.00 0.00 0.00 0.00 0.00 0.00 0.00 0.00 0.00 0.00 0.00 0.00
0.00 0.01 0.01 0.00 0.00 0.00 0.00 0.00 0.00 0.00 0.00 0.00 0.00 0.00 0.00 0.00 0.00 0.00 0.00 0.00 0.00 0.00 0.00 0.00 0.00 0.00 0.00 0.00 0.00 0.00 0.00 0.00 0.00 0.01 0.01 0.00 0.00 0.00 0.00 0.00 0.00 0.00 0.00 0.00
0.01 0.01 0.00 0.00 0.00 0.00 0.00 0.00 0.00 0.00 0.00 0.00 0.00 0.00 0.00 0.00 0.00 0.00 0.00 0.00 0.00 0.00 0.00 0.00 0.00 0.00 0.00 0.00 0.00 0.00 0.00 0.00 0.00 0.00 0.01 0.01 0.01 0.00 0.00 0.00 0.00 0.00 0.00 0.00
0.00 0.01 0.00 0.00 0.00 0.00 0.00 0.00 0.00 0.00 0.00 0.00 0.00 0.00 0.00 0.00 0.00 0.00 0.00 0.00 0.00 0.00 0.00 0.00 0.00 0.00 0.00 0.00 0.00 0.00 0.00 0.00 0.01 0.00 0.00 0.01 0.01 0.02 0.01 0.00 0.00 0.00 0.00 0.00
0.00 0.00 0.00 0.00 0.00 0.00 0.00 0.00 0.00 0.00 0.00 0.00 0.00 0.00 0.00 0.00 0.00 0.00 0.00 0.00 0.00 0.00 0.00 0.00 0.00 0.00 0.00 0.00 0.00 0.00 0.00 0.01 0.01 0.01 0.01 0.00 0.01 0.01 0.01 0.01 0.01 0.00 0.00 0.01
0.00 0.00 0.00 0.00 0.00 0.00 0.00 0.00 0.00 0.00 0.00 0.00 0.00 0.00 0.00 0.00 0.00 0.00 0.00 0.00 0.00 0.00 0.00 0.00 0.00 0.00 0.00 0.00 0.00 0.00 0.00 0.01 0.02 0.01 0.01 0.00 0.00 0.00 0.00 0.01 0.01 0.01 0.01 0.01
0.00 0.00 0.00 0.00 0.00 0.00 0.00 0.00 0.00 0.00 0.00 0.00 0.00 0.00 0.00 0.00 0.00 0.00 0.00 0.00 0.00 0.00 0.00 0.00 0.00 0.00 0.00 0.00 0.01 0.01 0.01 0.01 0.01 0.01 0.01 0.00 0.00 0.00 0.00 0.00 0.00 0.01 0.01 0.01
0.00 0.00 0.00 0.00 0.00 0.00 0.00 0.00 0.00 0.00 0.00 0.00 0.00 0.00 0.00 0.00 0.00 0.00 0.00 0.00 0.00 0.00 0.00 0.00 0.00 0.01 0.01 0.01 0.01 0.01 0.01 0.01 0.01 0.01 0.01 0.01 0.01 0.01 0.00 0.00 0.00 0.00 0.00 0.01
0.00 0.00 0.00 0.00 0.00 0.00 0.00 0.00 0.00 0.00 0.00 0.00 0.00 0.00 0.00 0.00 0.00 0.00 0.00 0.00 0.00 0.00 0.00 0.00 0.00 0.00 0.00 0.00 0.00 0.00 0.00 0.00 0.00 0.01 0.01 0.01 0.01 0.01 0.01 0.00 0.01 0.01 0.01 0.00
0.00 0.00 0.00 0.00 0.00 0.00 0.00 0.00 0.00 0.00 0.00 0.00 0.00 0.00 0.00 0.00 0.00 0.00 0.00 0.00 0.00 0.00 0.00 0.00 0.00 0.00 0.00 0.00 0.00 0.00 0.00 0.00 0.01 0.01 0.00 0.00 0.00 0.00 0.00 0.00 0.00 0.00 0.00 0.01
0.00 0.00 0.00 0.00 0.00 0.00 0.00 0.00 0.00 0.00 0.00 0.00 0.00 0.00 0.00 0.00 0.00 0.00 0.00 0.00 0.00 0.00 0.00 0.00 0.00 0.00 0.00 0.01 0.01 0.00 0.00 0.00 0.00 0.00 0.00 0.00 0.00 0.00 0.00 0.00 0.00 0.00 0.00 0.00
0.00 0.00 0.00 0.00 0.00 0.00 0.00 0.00 0.00 0.00 0.00 0.00 0.00 0.00 0.00 0.00 0.00 0.00 0.00 0.00 0.00 0.00 0.00 0.00 0.00 0.00 0.00 0.00 0.00 0.00 0.00 0.00 0.00 0.00 0.00 0.00 0.00 0.00 0.00 0.00 0.00 0.00 0.00 0.00
0.00 0.00 0.00 0.00 0.00 0.00 0.00 0.00 0.00 0.00 0.00 0.00 0.00 0.00 0.00 0.00 0.00 0.00 0.00 0.00 0.00 0.00 0.00 0.00 0.00 0.00 0.00 0.00 0.00 0.00 0.00 0.01 0.00 0.00 0.00 0.00 0.00 0.00 0.00 0.00 0.00 0.00 0.00 0.00
0.00 0.00 0.00 0.00 0.00 0.00 0.00 0.00 0.00 0.00 0.00 0.00 0.00 0.00 0.00 0.00 0.00 0.00 0.00 0.00 0.00 0.00 0.00 0.00 0.00 0.00 0.00 0.00 0.00 0.00 0.00 0.00 0.00 0.00 0.00 0.00 0.00 0.00 0.00 0.00 0.00 0.00 0.00 0.00
0.00 0.00 0.00 0.00 0.00 0.00 0.00 0.00 0.00 0.00 0.00 0.00 0.00 0.00 0.00 0.00 0.00 0.00 0.00 0.00 0.00 0.00 0.00 0.00 0.00 0.00 0.00 0.00 0.00 0.00 0.00 0.00 0.00 0.00 0.00 0.00 0.00 0.00 0.00 0.00 0.00 0.00 0.00 0.00
0.00 0.00 0.00 0.00 0.00 0.00 0.00 0.00 0.00 0.00 0.00 0.00 0.00 0.00 0.00 0.00 0.00 0.00 0.00 0.00 0.00 0.00 0.00 0.00 0.00 0.00 0.00 0.00 0.00 0.00 0.00 0.00 0.00 0.00 0.00 0.00 0.00 0.00 0.00 0.00 0.00 0.00 0.00 0.00
0.00 0.00 0.00 0.00 0.00 0.00 0.00 0.00 0.00 0.00 0.00 0.00 0.00 0.00 0.00 0.00 0.00 0.00 0.00 0.00 0.00 0.00 0.00 0.00 0.00 0.00 0.00 0.00 0.00 0.00 0.00 0.00 0.00 0.00 0.00 0.00 0.00 0.00 0.00 0.00 0.00 0.00 0.00 0.00
0.00 0.00 0.00 0.00 0.00 0.00 0.00 0.00 0.00 0.00 0.00 0.00 0.00 0.00 0.00 0.00 0.00 0.00 0.00 0.00 0.00 0.00 0.00 0.00 0.00 0.00 0.00 0.00 0.00 0.00 0.00 0.00 0.00 0.00 0.00 0.00 0.00 0.00 0.00 0.00 0.00 0.01 0.01 0.01
0.00 0.00 0.00 0.00 0.00 0.00 0.00 0.00 0.00 0.00 0.00 0.00 0.00 0.00 0.00 0.00 0.00 0.00 0.00 0.00 0.00 0.00 0.00 0.00 0.00 0.00 0.00 0.00 0.00 0.00 0.00 0.00 0.00 0.00 0.00 0.00 0.00 0.00 0.01 0.01 0.01 0.01 0.01 0.01
0.00 0.00 0.00 0.00 0.00 0.00 0.00 0.00 0.00 0.00 0.00 0.00 0.00 0.00 0.00 0.00 0.00 0.00 0.00 0.00 0.00 0.00 0.00 0.00 0.00 0.00 0.00 0.00 0.00 0.00 0.00 0.00 0.00 0.00 0.01 0.01 0.01 0.01 0.01 0.01 0.01 0.01 0.01 0.01
0.00 0.00 0.00 0.00 0.00 0.00 0.00 0.00 0.00 0.00 0.00 0.00 0.00 0.00 0.00 0.00 0.00 0.00 0.00 0.00 0.00 0.00 0.00 0.00 0.00 0.00 0.00 0.00 0.00 0.00 0.00 0.00 0.01 0.01 0.01 0.01 0.01 0.01 0.01 0.01 0.01 0.01 0.01 0.01
0.00 0.00 0.00 0.00 0.00 0.00 0.00 0.00 0.00 0.00 0.00 0.00 0.00 0.00 0.00 0.00 0.00 0.00 0.00 0.00 0.00 0.00 0.00 0.00 0.00 0.00 0.00 0.00 0.00 0.00 0.00 0.00 0.00 0.00 0.01 0.01 0.01 0.01 0.01 0.01 0.01 0.01 0.01 0.00
0.01 0.00 0.00 0.00 0.00 0.00 0.00 0.00 0.00 0.00 0.00 0.00 0.00 0.00 0.00 0.00 0.00 0.00 0.00 0.00 0.00 0.00 0.00 0.00 0.00 0.00 0.00 0.00 0.00 0.00 0.00 0.00 0.00 0.00 0.00 0.00 0.01 0.01 0.01 0.00 0.00 0.00 0.00 0.00
0.01 0.01 0.01 0.01 0.01 0.00 0.00 0.00 0.00 0.01 0.01 0.00 0.00 0.00 0.00 0.00 0.00 0.00 0.00 0.00 0.00 0.00 0.00 0.00 0.00 0.00 0.00 0.00 0.00 0.00 0.00 0.00 0.00 0.00 0.00 0.00 0.00 0.00 0.00 0.00 0.01 0.01 0.00 0.00
0.01 0.01 0.01 0.01 0.01 0.01 0.01 0.01 0.01 0.01 0.01 0.01 0.01 0.00 0.00 0.00 0.00 0.00 0.00 0.00 0.00 0.00 0.00 0.00 0.00 0.00 0.00 0.00 0.00 0.00 0.00 0.00 0.00 0.00 0.00 0.01 0.01 0.00 0.00 0.00 0.00 0.00 0.00 0.00
MSLP
1019.09 1019.42 1019.61 1019.69 1019.72 1019.73 1019.78 1019.90 1020.12 1020.44 1020.82 1021.24 1021.65 1022.00 1022.25 1022.38 1022.38 1022.27 1022.08 1021.82 1021.57 1021.34 1021.18 1021.10 1021.10 1021.19 1021.34 1021.53 1021.72 1021.91 1022.06 1022.16 1022.22 1022.23 1022.22 1022.19 1022.16 1022.13 1022.12 1022.13 1022.15 1022.16 1022.16 1022.13
1019.02 1019.40 1019.64 1019.75 1019.78 1019.78 1019.82 1019.92 1020.13 1020.45 1020.87 1021.34 1021.83 1022.27 1022.63 1022.87 1022.98 1022.95 1022.81 1022.61 1022.37 1022.15 1021.99 1021.91 1021.92 1022.02 1022.18 1022.38 1022.60 1022.79 1022.94 1023.03 1023.07 1023.05 1022.99 1022.92 1022.84 1022.77 1022.73 1022.70 1022.69 1022.67 1022.63 1022.56
1018.86 1019.25 1019.50 1019.62 1019.65 1019.65 1019.67 1019.76 1019.97 1020.30 1020.75 1021.28 1021.85 1022.41 1022.88 1023.24 1023.46 1023.54 1023.49 1023.35 1023.16 1022.97 1022.83 1022.77 1022.79 1022.90 1023.09 1023.32 1023.55 1023.75 1023.90 1023.98 1023.99 1023.93 1023.83 1023.69 1023.56 1023.44 1023.35 1023.28 1023.22 1023.17 1023.10 1022.99
1018.55 1018.93 1019.17 1019.27 1019.29 1019.27 1019.28 1019.37 1019.58 1019.94 1020.44 1021.05 1021.72 1022.38 1022.99 1023.49 1023.84 1024.04 1024.09 1024.04 1023.91 1023.78 1023.67 1023.63 1023.67 1023.81 1024.01 1024.25 1024.49 1024.70 1024.85 1024.92 1024.90 1024.80 1024.64 1024.45 1024.26 1024.08 1023.93 1023.81 1023.72 1023.64 1023.54 1023.40
1018.09 1018.42 1018.61 1018.69 1018.68 1018.65 1018.65 1018.75 1018.99 1019.39 1019.95 1020.64 1021.42 1022.21 1022.96 1023.60 1024.10 1024.43 1024.61 1024.65 1024.61 1024.53 1024.46 1024.45 1024.51 1024.65 1024.86 1025.10 1025.35 1025.56 1025.70 1025.75 1025.71 1025.58 1025.38 1025.14 1024.89 1024.66 1024.46 1024.30 1024.17 1024.05 1023.93 1023.78
1017.47 1017.72 1017.86 1017.90 1017.87 1017.84 1017.85 1017.97 1018.24 1018.69 1019.32 1020.11 1021.00 1021.92 1022.81 1023.60 1024.24 1024.72 1025.02 1025.17 1025.21 1025.19 1025.16 1025.17 1025.24 1025.38 1025.58 1025.81 1026.05 1026.26 1026.39 1026.43 1026.37 1026.22 1026.00 1025.73 1025.44 1025.17 1024.93 1024.73 1024.57 1024.43 1024.29 1024.14
1016.70 1016.89 1016.98 1016.99 1016.95 1016.91 1016.95 1017.10 1017.42 1017.93 1018.64 1019.51 1020.50 1021.54 1022.57 1023.50 1024.28 1024.89 1025.32 1025.57 1025.69 1025.73 1025.74 1025.76 1025.82 1025.95 1026.13 1026.35 1026.57 1026.76 1026.89 1026.93 1026.87 1026.72 1026.48 1026.20 1025.90 1025.61 1025.34 1025.12 1024.94 1024.78 1024.64 1024.48
1015.86 1015.98 1016.04 1016.04 1016.01 1016.00 1016.07 1016.27 1016.65 1017.22 1017.99 1018.93 1020.01 1021.15 1022.28 1023.32 1024.23 1024.96 1025.49 1025.84 1026.04 1026.13 1026.17 1026.20 1026.26 1026.37 1026.52 1026.71 1026.92 1027.09 1027.21 1027.25 1027.20 1027.06 1026.84 1026.57 1026.27 1025.98 1025.71 1025.48 1025.28 1025.11 1024.96 1024.80
1014.99 1015.09 1015.15 1015.16 1015.17 1015.22 1015.34 1015.60 1016.03 1016.65 1017.47 1018.47 1019.60 1020.80 1022.00 1023.12 1024.12 1024.93 1025.56 1025.99 1026.25 1026.40 1026.47 1026.51 1026.57 1026.65 1026.78 1026.95 1027.12 1027.28 1027.40 1027.44 1027.41 1027.29 1027.09 1026.84 1026.57 1026.28 1026.02 1025.78 1025.58 1025.41 1025.24 1025.07
1014.19 1014.30 1014.39 1014.46 1014.54 1014.66 1014.86 1015.18 1015.67 1016.33 1017.18 1018.20 1019.34 1020.56 1021.79 1022.95 1023.99 1024.86 1025.55 1026.05 1026.37 1026.57 1026.67 1026.73 1026.79 1026.86 1026.97 1027.11 1027.26 1027.40 1027.50 1027.55 1027.52 1027.42 1027.25 1027.03 1026.78 1026.51 1026.26 1026.02 1025.82 1025.63 1025.44 1025.25
1013.50 1013.67 1013.83 1013.99 1014.17 1014.39 1014.68 1015.07 1015.61 1016.30 1017.15 1018.16 1019.28 1020.48 1021.68 1022.83 1023.88 1024.78 1025.51 1026.06 1026.43 1026.67 1026.82 1026.90 1026.97 1027.04 1027.13 1027.25 1027.37 1027.49 1027.57 1027.61 1027.59 1027.49 1027.34 1027.13 1026.89 1026.64 1026.39 1026.15 1025.93 1025.72 1025.52 1025.29
1012.96 1013.21 1013.48 1013.76 1014.06 1014.39 1014.78 1015.26 1015.84 1016.54 1017.38 1018.35 1019.42 1020.56 1021.70 1022.81 1023.84 1024.73 1025.47 1026.05 1026.47 1026.75 1026.94 1027.06 1027.14 1027.22 1027.30 1027.39 1027.49 1027.57 1027.63 1027.64 1027.60 1027.50 1027.34 1027.14 1026.90 1026.65 1026.39 1026.14 1025.90 1025.67 1025.43 1025.16
1012.54 1012.89 1013.29 1013.70 1014.14 1014.60 1015.10 1015.65 1016.28 1017.00 1017.81 1018.73 1019.73 1020.78 1021.85 1022.88 1023.85 1024.72 1025.45 1026.04 1026.49 1026.82 1027.04 1027.20 1027.31 1027.39 1027.47 1027.54 1027.61 1027.66 1027.67 1027.65 1027.58 1027.45 1027.27 1027.04 1026.79 1026.52 1026.25 1025.98 1025.71 1025.44 1025.16 1024.86
1012.20 1012.67 1013.18 1013.74 1014.32 1014.91 1015.52 1016.15 1016.82 1017.55 1018.35 1019.20 1020.13 1021.09 1022.06 1023.02 1023.92 1024.74 1025.45 1026.04 1026.51 1026.86 1027.13 1027.31 1027.45 1027.54 1027.62 1027.67 1027.70 1027.71 1027.68 1027.61 1027.49 1027.32 1027.10 1026.84 1026.56 1026.26 1025.96 1025.66 1025.37 1025.07 1024.75 1024.42
1011.88 1012.45 1013.09 1013.78 1014.48 1015.20 1015.91 1016.62 1017.34 1018.09 1018.87 1019.68 1020.54 1021.42 1022.30 1023.17 1024.01 1024.77 1025.45 1026.03 1026.50 1026.88 1027.16 1027.38 1027.53 1027.63 1027.70 1027.73 1027.73 1027.70 1027.62 1027.50 1027.33 1027.11 1026.85 1026.56 1026.24 1025.91 1025.58 1025.25 1024.92 1024.59 1024.25 1023.89
1011.55 1012.20 1012.94 1013.74 1014.55 1015.37 1016.17 1016.96 1017.74 1018.51 1019.29 1020.08 1020.88 1021.70 1022.52 1023.32 1024.08 1024.80 1025.44 1026.00 1026.46 1026.84 1027.14 1027.36 1027.52 1027.63 1027.69 1027.71 1027.68 1027.61 1027.49 1027.32 1027.11 1026.85 1026.55 1026.22 1025.86 1025.50 1025.14 1024.78 1024.43 1024.07 1023.71 1023.33
1011.19 1011.91 1012.72 1013.59 1014.49 1015.39 1016.27 1017.13 1017.96 1018.76 1019.55 1020.34 1021.12 1021.90 1022.67 1023.42 1024.14 1024.81 1025.41 1025.94 1026.40 1026.77 1027.06 1027.28 1027.44 1027.54 1027.59 1027.59 1027.54 1027.44 1027.29 1027.09 1026.84 1026.55 1026.22 1025.86 1025.48 1025.10 1024.71 1024.33 1023.95 1023.58 1023.20 1022.81
1010.83 1011.59 1012.44 1013.37 1014.32 1015.27 1016.21 1017.12 1018.00 1018.84 1019.67 1020.47 1021.25 1022.02 1022.77 1023.49 1024.18 1024.81 1025.38 1025.89 1026.31 1026.67 1026.95 1027.15 1027.30 1027.39 1027.42 1027.40 1027.33 1027.21 1027.05 1026.83 1026.57 1026.26 1025.91 1025.54 1025.14 1024.74 1024.33 1023.93 1023.53 1023.14 1022.75 1022.36
1010.54 1011.32 1012.20 1013.13 1014.11 1015.09 1016.06 1017.01 1017.93 1018.81 1019.67 1020.50 1021.30 1022.08 1022.83 1023.55 1024.22 1024.83 1025.38 1025.86 1026.26 1026.58 1026.84 1027.02 1027.15 1027.21 1027.23 1027.19 1027.11 1026.98 1026.80 1026.58 1026.31 1026.00 1025.65 1025.27 1024.87 1024.46 1024.04 1023.62 1023.20 1022.79 1022.38 1021.97
1010.39 1011.18 1012.05 1012.99 1013.96 1014.95 1015.93 1016.89 1017.83 1018.75 1019.64 1020.50 1021.33 1022.14 1022.91 1023.63 1024.30 1024.90 1025.43 1025.89 1026.26 1026.56 1026.78 1026.93 1027.02 1027.06 1027.05 1027.00 1026.90 1026.76 1026.58 1026.35 1026.08 1025.78 1025.43 1025.06 1024.65 1024.24 1023.80 1023.37 1022.93 1022.50 1022.07 1021.64
1010.44 1011.23 1012.09 1013.01 1013.96 1014.93 1015.90 1016.86 1017.81 1018.74 1019.65 1020.54 1021.41 1022.24 1023.03 1023.77 1024.44 1025.04 1025.56 1025.99 1026.34 1026.60 1026.78 1026.90 1026.95 1026.96 1026.92 1026.84 1026.72 1026.56 1026.37 1026.14 1025.88 1025.58 1025.24 1024.87 1024.47 1024.04 1023.60 1023.15 1022.70 1022.24 1021.78 1021.33
1010.69 1011.48 1012.33 1013.23 1014.15 1015.08 1016.03 1016.97 1017.91 1018.84 1019.77 1020.68 1021.56 1022.41 1023.22 1023.97 1024.64 1025.24 1025.74 1026.15 1026.47 1026.69 1026.84 1026.91 1026.93 1026.89 1026.81 1026.69 1026.55 1026.37 1026.17 1025.93 1025.66 1025.36 1025.02 1024.65 1024.25 1023.83 1023.38 1022.92 1022.45 1021.97 1021.48 1021.00
1011.10 1011.91 1012.75 1013.62 1014.51 1015.41 1016.32 1017.24 1018.16 1019.08 1020.00 1020.91 1021.80 1022.66 1023.47 1024.21 1024.88 1025.46 1025.95 1026.33 1026.61 1026.80 1026.90 1026.93 1026.89 1026.81 1026.68 1026.53 1026.34 1026.14 1025.91 1025.66 1025.38 1025.07 1024.73 1024.36 1023.97 1023.54 1023.09 1022.63 1022.14 1021.65 1021.14 1020.64
1011.61 1012.43 1013.27 1014.13 1014.99 1015.86 1016.74 1017.63 1018.52 1019.43 1020.33 1021.23 1022.10 1022.95 1023.74 1024.47 1025.12 1025.67 1026.13 1026.47 1026.71 1026.85 1026.90 1026.88 1026.80 1026.66 1026.49 1026.29 1026.06 1025.82 1025.56 1025.29 1024.99 1024.68 1024.34 1023.97 1023.58 1023.16 1022.72 1022.25 1021.77 1021.27 1020.75 1020.22
1012.11 1012.95 1013.80 1014.65 1015.50 1016.36 1017.21 1018.08 1018.95 1019.83 1020.71 1021.58 1022.43 1023.24 1024.00 1024.69 1025.30 1025.81 1026.22 1026.52 1026.71 1026.80 1026.80 1026.72 1026.59 1026.40 1026.18 1025.94 1025.67 1025.39 1025.11 1024.81 1024.50 1024.17 1023.83 1023.46 1023.08 1022.68 1022.25 1021.80 1021.32 1020.83 1020.31 1019.77
1012.52 1013.38 1014.25 1015.11 1015.96 1016.81 1017.66 1018.51 1019.37 1020.23 1021.08 1021.92 1022.73 1023.50 1024.21 1024.85 1025.40 1025.85 1026.19 1026.43 1026.57 1026.60 1026.55 1026.43 1026.25 1026.02 1025.76 1025.47 1025.17 1024.87 1024.55 1024.23 1023.91 1023.58 1023.24 1022.88 1022.51 1022.12 1021.71 1021.27 1020.82 1020.33 1019.81 1019.27
1012.78 1013.67 1014.55 1015.42 1016.29 1017.16 1018.02 1018.88 1019.73 1020.58 1021.41 1022.21 1022.98 1023.69 1024.34 1024.91 1025.39 1025.77 1026.05 1026.22 1026.30 1026.28 1026.18 1026.02 1025.80 1025.53 1025.24 1024.94 1024.62 1024.29 1023.96 1023.63 1023.30 1022.96 1022.62 1022.27 1021.91 1021.53 1021.13 1020.71 1020.27 1019.79 1019.27 1018.72
Thickness
5714 5714 5712 5709 5708 5708 5708 5713 5711 5718 5721 5730 5737 5737 5738 5738 5737 5735 5733 5731 5730 5727 5727 5724 5722 5721 5719 5717 5715 5712 5709 5706 5705 5704 5702 5699 5696 5694 5693 5690 5689 5687 5686 5684
5709 5712 5711 5707 5711 5711 5711 5713 5715 5717 5722 5739 5741 5741 5739 5738 5735 5733 5732 5731 5731 5729 5727 5725 5724 5722 5719 5716 5714 5711 5708 5705 5703 5701 5699 5696 5693 5691 5689 5686 5685 5683 5681 5679
5704 5708 5706 5703 5716 5715 5715 5720 5720 5717 5729 5738 5735 5735 5736 5737 5735 5734 5733 5732 5731 5731 5728 5727 5726 5723 5719 5716 5714 5710 5707 5704 5700 5698 5695 5693 5691 5688 5685 5683 5680 5678 5677 5675
5703 5700 5687 5716 5731 5725 5721 5725 5729 5730 5734 5735 5735 5736 5738 5739 5737 5735 5734 5732 5731 5731 5729 5728 5727 5723 5720 5716 5712 5709 5706 5702 5698 5695 5692 5690 5687 5684 5682 5681 5678 5675 5674 5673
5699 5693 5700 5716 5725 5724 5719 5722 5735 5732 5733 5735 5735 5734 5736 5738 5738 5736 5735 5734 5732 5731 5729 5727 5724 5721 5717 5713 5710 5706 5703 5700 5696 5693 5690 5686 5683 5681 5679 5677 5675 5673 5671 5669
5695 5687 5688 5713 5728 5731 5723 5717 5738 5736 5733 5733 5731 5728 5732 5736 5735 5734 5733 5732 5730 5728 5727 5723 5721 5718 5714 5711 5707 5703 5700 5698 5695 5692 5688 5684 5682 5679 5677 5674 5672 5670 5668 5667
5692 5691 5704 5725 5726 5723 5707 5719 5737 5738 5736 5734 5732 5737 5736 5734 5732 5730 5728 5727 5725 5723 5721 5719 5717 5714 5711 5708 5705 5703 5699 5695 5692 5689 5685 5682 5678 5676 5673 5671 5668 5667 5665 5663
5693 5687 5697 5723 5720 5718 5727 5738 5737 5736 5736 5734 5733 5732 5731 5728 5726 5725 5723 5721 5720 5718 5715 5714 5713 5710 5707 5704 5703 5700 5695 5691 5688 5685 5681 5678 5674 5671 5670 5667 5664 5662 5661 5660
5704 5706 5719 5722 5725 5730 5731 5732 5733 5734 5734 5732 5728 5726 5724 5722 5721 5719 5718 5717 5715 5713 5710 5709 5707 5706 5703 5700 5698 5695 5690 5687 5684 5681 5677 5674 5670 5667 5665 5662 5661 5659 5657 5656
5702 5710 5716 5718 5721 5724 5726 5727 5729 5730 5730 5728 5725 5723 5719 5717 5715 5714 5713 5711 5710 5708 5705 5703 5702 5700 5698 5696 5693 5690 5686 5683 5680 5676 5673 5669 5666 5664 5661 5658 5656 5655 5653 5650
5699 5709 5709 5712 5716 5719 5721 5723 5724 5724 5724 5723 5721 5718 5715 5713 5711 5708 5706 5705 5704 5702 5700 5698 5696 5694 5692 5690 5688 5685 5682 5679 5675 5672 5668 5664 5661 5657 5655 5653 5651 5648 5647 5645
5698 5710 5710 5712 5715 5715 5715 5715 5717 5716 5716 5716 5715 5712 5710 5708 5705 5703 5701 5699 5697 5695 5693 5692 5691 5688 5686 5684 5682 5680 5677 5674 5669 5666 5662 5659 5655 5650 5645 5643 5640 5638 5636 5634
5705 5707 5708 5708 5708 5709 5709 5710 5711 5710 5709 5708 5707 5705 5703 5700 5697 5696 5694 5692 5690 5688 5687 5686 5684 5681 5679 5677 5676 5674 5671 5667 5663 5660 5656 5653 5649 5646 5642 5636 5631 5629 5626 5623
5696 5696 5695 5698 5699 5701 5702 5702 5703 5702 5701 5700 5699 5696 5694 5692 5689 5687 5686 5685 5684 5682 5680 5678 5676 5674 5672 5670 5668 5666 5664 5659 5656 5653 5650 5647 5644 5641 5638 5634 5630 5625 5620 5615
5688 5690 5692 5693 5693 5692 5693 5693 5692 5691 5691 5690 5689 5687 5685 5683 5681 5679 5678 5677 5676 5674 5671 5670 5667 5665 5663 5662 5660 5658 5655 5652 5648 5645 5642 5640 5636 5633 5630 5627 5623 5619 5615 5610
5682 5681 5682 5682 5682 5684 5684 5685 5684 5683 5682 5680 5679 5678 5676 5675 5672 5670 5669 5668 5667 5665 5663 5661 5658 5656 5654 5652 5650 5648 5645 5641 5638 5637 5634 5631 5628 5624 5621 5618 5615 5611 5607 5603
5672 5672 5673 5674 5675 5676 5677 5678 5677 5676 5674 5672 5670 5669 5667 5665 5663 5661 5660 5659 5658 5657 5654 5652 5649 5647 5645 5643 5642 5639 5637 5633 5628 5628 5626 5622 5619 5616 5613 5609 5606 5602 5598 5593
5673 5675 5675 5675 5673 5671 5670 5669 5668 5667 5665 5664 5661 5659 5657 5656 5654 5652 5651 5649 5648 5646 5644 5642 5640 5637 5636 5634 5632 5630 5628 5625 5622 5619 5616 5613 5610 5607 5603 5599 5596 5591 5587 5582
5663 5664 5666 5666 5666 5665 5663 5661 5660 5659 5657 5654 5651 5650 5649 5647 5645 5642 5641 5639 5637 5635 5633 5631 5627 5628 5626 5624 5621 5620 5618 5616 5612 5609 5606 5601 5598 5596 5592 5588 5585 5580 5576 5571
5653 5654 5655 5655 5655 5655 5653 5652 5651 5648 5647 5644 5642 5640 5638 5636 5634 5632 5630 5628 5626 5624 5622 5620 5619 5618 5617 5614 5610 5610 5608 5605 5602 5599 5595 5592 5589 5585 5582 5577 5573 5569 5564 5560
5642 5643 5644 5644 5643 5643 5643 5642 5640 5638 5636 5634 5633 5630 5627 5625 5623 5622 5620 5617 5614 5612 5610 5608 5608 5607 5606 5603 5600 5600 5597 5594 5591 5588 5585 5581 5578 5574 5570 5566 5562 5557 5553 5548
5632 5633 5633 5633 5633 5632 5632 5632 5630 5628 5625 5623 5621 5619 5616 5613 5612 5611 5609 5606 5603 5599 5599 5599 5597 5595 5593 5591 5590 5588 5586 5582 5579 5576 5572 5569 5565 5561 5558 5554 5549 5545 5541 5536
5621 5622 5623 5623 5623 5622 5620 5619 5617 5616 5614 5611 5609 5607 5606 5604 5602 5600 5597 5594 5591 5588 5588 5587 5584 5581 5579 5579 5578 5576 5573 5570 5566 5563 5559 5556 5552 5549 5545 5541 5536 5532 5528 5523
5610 5610 5610 5611 5611 5609 5607 5605 5603 5602 5600 5598 5597 5595 5593 5591 5589 5588 5585 5581 5579 5577 5577 5574 5571 5569 5567 5568 5566 5563 5560 5557 5553 5550 5546 5543 5539 5535 5531 5527 5522 5518 5513 5508
5597 5597 5598 5598 5597 5595 5594 5592 5590 5588 5586 5585 5583 5582 5581 5580 5578 5575 5573 5570 5567 5566 5565 5562 5559 5557 5556 5555 5552 5549 5546 5543 5540 5536 5532 5528 5525 5521 5517 5512 5507 5503 5499 5494
5583 5584 5584 5585 5584 5582 5581 5580 5578 5575 5574 5572 5570 5568 5567 5565 5564 5562 5560 5558 5556 5553 5552 5550 5547 5545 5544 5541 5538 5535 5532 5528 5525 5521 5518 5514 5510 5506 5502 5497 5493 5489 5484 5479
5568 5569 5569 5569 5568 5568 5568 5567 5565 5563 5562 5560 5558 5555 5554 5553 5551 5550 5548 5546 5544 5541 5539 5537 5534 5532 5529 5526 5523 5521 5518 5514 5510 5507 5503 5499 5495 5491 5487 5482 5478 5474 5469 5464